Location: Fosso Corella
(43.9167°N, 11.5667°E)
Time: 20:49:57
(UTC+00:00)

Cosmos 2151 - Pass Details

Date: 07 June 2020
Orbit: 581 x 602 km, 82.5° (Epoch: 11 July)

Event Time Altitude Azimuth Distance (km) Brightness Sun altitude
Exits shadow 01:40:33 13° 164° (SSE) 1,758 5.0 -15.2°
Maximum altitude 01:44:11 46° 93° (E) 814 3.9 -14.8°
Drops below altitude 10° 01:48:19 10° 20° (NNE) 1,953 6.9 -14.4°
Sets 01:50:35 0° 15° (NNE) 2,862 7.8 -14.1°
